DW9923 Weather Reports


Display with metric or nautical units.
time (UTC)temp
F
wind
direction
speed
MPH
gust
MPH
rain 1hr
in
rain 24hr
in
rain mn
in
humidity
%
barometer
mb
20260905182336 89 296 1.0 3.0 0.00 0.00 0.00 38
20260905181825 88 298 0.0 3.0 0.00 0.00 0.00 40
20260905180700 87 213 0.0 1.0 0.00 0.00 0.00 42
20260905175542 86 267 0.0 2.0 0.00 0.00 0.00 44
20260905175033 85 269 0.0 2.0 0.00 0.00 0.00 45
20260905174513 85 252 0.0 2.0 0.00 0.00 0.00 47
20260905174016 84 144 0.0 0.0 0.00 0.00 0.00 49
20260905173523 83 144 0.0 0.0 0.00 0.00 0.00 51
20260905173018 82 144 0.0 3.0 0.00 0.00 0.00 51
20260905172521 81 249 0.0 3.0 0.00 0.00 0.00 53
20260905172018 80 109 0.0 0.0 0.00 0.00 0.00 54
20260905171504 79 108 0.0 0.0 0.00 0.00 0.00 57
20260905170956 78 151 0.0 1.0 0.00 0.00 0.00 59
20260905170436 77 159 0.0 0.0 0.00 0.00 0.00 61
20260905165924 75 311 0.0 0.0 0.00 0.00 0.00 65
20260905165409 74 311 0.0 0.0 0.00 0.00 0.00 66
20260905164919 72 311 0.0 2.0 0.00 0.00 0.00 69
20260905164417 71 311 0.0 2.0 0.00 0.00 0.00 72
20260905163916 69 311 0.0 0.0 0.00 0.00 0.00 77
20260905163423 68 311 0.0 0.0 0.00 0.00 0.00 82
20260905162913 67 311 0.0 0.0 0.00 0.00 0.00 87
20260905162353 65 311 0.0 0.0 0.00 0.00 0.00 88
20260905161853 64 311 0.0 1.0 0.00 0.00 0.00 91
20260905161347 63 311 0.0 0.0 0.00 0.00 0.00 94
20260905160855 63 311 0.0 0.0 0.00 0.00 0.00 95
20260905160341 62 311 0.0 0.0 0.00 0.00 0.00 95
20260905155828 61 311 0.0 0.0 0.00 0.00 0.00 95
20260905155310 59 311 0.0 0.0 0.00 0.00 0.00 95
20260905154813 59 311 0.0 0.0 0.00 0.00 0.00 95
20260905153707 57 311 0.0 0.0 0.00 0.00 0.00 94
20260905153207 57 311 0.0 0.0 0.00 0.00 0.00 94
20260905152657 56 311 0.0 0.0 0.00 0.00 0.00 94
20260905152145 56 311 0.0 0.0 0.00 0.00 0.00 93
20260905151626 56 311 0.0 0.0 0.00 0.00 0.00 93
20260905151119 55 311 0.0 0.0 0.00 0.00 0.00 93
20260905150615 55 311 0.0 0.0 0.00 0.00 0.00 93
20260905150115 55 311 0.0 0.0 0.00 0.00 0.00 93
20260905145608 55 311 0.0 0.0 0.00 0.00 0.00 93
20260905145103 54 311 0.0 0.0 0.00 0.00 0.00 92
20260905144552 54 311 0.0 0.0 0.00 0.00 0.00 92
20260905144036 54 311 0.0 0.0 0.00 0.00 0.00 91
20260905143544 54 311 0.0 0.0 0.00 0.00 0.00 92
20260905143041 54 311 0.0 0.0 0.00 0.00 0.00 91
20260905142537 54 311 0.0 0.0 0.00 0.00 0.00 91
20260905141427 54 311 0.0 0.0 0.00 0.00 0.00 91
20260905140908 54 311 0.0 0.0 0.00 0.00 0.00 91
20260905140406 54 311 0.0 0.0 0.00 0.00 0.00 91
20260905135854 54 311 0.0 0.0 0.00 0.00 0.00 91
20260905135347 55 311 0.0 0.0 0.00 0.00 0.00 91
20260905134853 55 311 0.0 0.0 0.00 0.00 0.00 91
20260905133721 55 311 0.0 0.0 0.00 0.00 0.00 91
20260905133232 55 311 0.0 0.0 0.00 0.00 0.00 91
20260905132737 55 311 0.0 0.0 0.00 0.00 0.00 91
20260905131621 55 311 0.0 0.0 0.00 0.00 0.00 91
20260905131117 55 311 0.0 0.0 0.00 0.00 0.00 91
20260905130605 55 311 0.0 0.0 0.00 0.00 0.00 91
20260905130052 55 311 0.0 0.0 0.00 0.00 0.00 91
20260905125555 55 311 0.0 1.0 0.00 0.00 0.00 91
20260905125045 55 311 0.0 0.0 0.00 0.00 0.00 91
20260905124551 55 311 0.0 0.0 0.00 0.00 0.00 91
20260905124051 55 311 0.0 0.0 0.00 0.00 0.00 91
20260905123555 55 311 0.0 0.0 0.00 0.00 0.00 91
20260905123058 55 311 0.0 0.0 0.00 0.00 0.00 91
20260905122547 56 311 0.0 0.0 0.00 0.00 0.00 90
20260905122037 56 311 0.0 0.0 0.00 0.00 0.00 90
20260905121545 56 311 0.0 0.0 0.00 0.00 0.00 90
20260905120412 56 311 0.0 1.0 0.00 0.00 0.00 90
20260905115915 56 311 0.0 0.0 0.00 0.00 0.00 90
20260905115425 56 311 0.0 0.0 0.00 0.00 0.00 90
20260905114914 56 311 0.0 0.0 0.00 0.00 0.00 90
20260905114414 56 311 0.0 0.0 0.00 0.00 0.00 90
20260905113918 56 311 0.0 0.0 0.00 0.00 0.00 90
20260905113424 56 311 0.0 0.0 0.00 0.00 0.00 90
20260905112909 56 311 0.0 0.0 0.00 0.00 0.00 90
20260905112400 56 311 0.0 0.0 0.00 0.00 0.00 90
20260905111234 56 311 0.0 0.0 0.00 0.00 0.00 90
20260905110714 56 311 0.0 0.0 0.00 0.00 0.00 90
20260905110208 56 311 0.0 0.0 0.00 0.00 0.00 89
20260905105654 57 311 0.0 2.0 0.00 0.00 0.00 89
20260905105150 57 311 0.0 0.0 0.00 0.00 0.00 88
20260905104651 57 311 0.0 0.0 0.00 0.00 0.00 89
20260905104133 57 311 0.0 0.0 0.00 0.00 0.00 89
20260905103613 57 311 0.0 0.0 0.00 0.00 0.00 89
20260905103104 57 311 0.0 0.0 0.00 0.00 0.00 89
20260905102603 57 311 0.0 0.0 0.00 0.00 0.00 89
20260905102106 57 311 0.0 0.0 0.00 0.00 0.00 89
20260905100333 58 311 0.0 0.0 0.00 0.00 0.00 89
20260905095834 58 311 0.0 0.0 0.00 0.00 0.00 89
20260905095339 58 311 0.0 0.0 0.00 0.00 0.00 88
20260905094824 58 311 0.0 0.0 0.00 0.00 0.00 88
20260905094331 58 311 0.0 0.0 0.00 0.00 0.00 88
20260905092601 58 311 0.0 0.0 0.00 0.00 0.00 88
20260905092043 58 311 0.0 0.0 0.00 0.00 0.00 88
20260905091542 58 311 0.0 0.0 0.00 0.00 0.00 87
20260905091034 59 311 0.0 0.0 0.00 0.00 0.00 88
20260905090515 59 311 0.0 0.0 0.00 0.00 0.00 88
20260905085411 59 311 0.0 0.0 0.00 0.00 0.00 87
20260905084901 59 311 0.0 0.0 0.00 0.00 0.00 87
20260905084351 59 311 0.0 0.0 0.00 0.00 0.00 87
20260905081948 60 311 0.0 0.0 0.00 0.00 0.00 87
20260905081447 60 311 0.0 0.0 0.00 0.00 0.00 87
20260905080952 60 311 0.0 0.0 0.00 0.00 0.00 87
20260905080445 60 311 0.0 0.0 0.00 0.00 0.00 87
20260905075927 60 311 0.0 0.0 0.00 0.00 0.00 87
20260905075414 60 311 0.0 0.0 0.00 0.00 0.00 87
20260905074916 60 311 0.0 0.0 0.00 0.00 0.00 87
20260905074357 61 311 0.0 0.0 0.00 0.00 0.00 87
20260905073906 61 311 0.0 1.0 0.00 0.00 0.00 87
20260905073348 61 311 0.0 0.0 0.00 0.00 0.00 87
20260905072852 61 311 0.0 0.0 0.00 0.00 0.00 87
20260905072350 61 311 0.0 0.0 0.00 0.00 0.00 87
20260905071844 61 311 0.0 0.0 0.00 0.00 0.00 87
20260905070723 61 311 0.0 0.0 0.00 0.00 0.00 86
20260905065617 61 311 0.0 0.0 0.00 0.00 0.00 86
20260905065119 61 311 0.0 0.0 0.00 0.00 0.00 85
20260905064609 61 311 0.0 0.0 0.00 0.00 0.00 84
20260905064111 62 311 0.0 0.0 0.00 0.00 0.00 84
20260905063603 62 311 0.0 0.0 0.00 0.00 0.00 84
20260905063109 62 311 0.0 0.0 0.00 0.00 0.00 84
20260905061933 62 311 0.0 0.0 0.00 0.00 0.00 84
20260905061430 62 311 0.0 0.0 0.00 0.00 0.00 84
20260905060916 63 311 0.0 0.0 0.00 0.00 0.00 84
20260905055744 63 311 0.0 0.0 0.00 0.00 0.00 83
20260905054625 63 311 0.0 0.0 0.00 0.00 0.00 83
20260905053454 64 311 0.0 0.0 0.00 0.00 0.00 83
20260905053000 64 311 0.0 0.0 0.00 0.00 0.00 83
20260905052453 64 311 0.0 0.0 0.00 0.00 0.00 83
20260905051954 64 311 0.0 0.0 0.00 0.00 0.00 83
20260905051450 64 311 0.0 0.0 0.00 0.00 0.00 82
20260905050956 64 311 0.0 0.0 0.00 0.00 0.00 82
20260905045846 65 311 0.0 0.0 0.00 0.00 0.00 81
20260905045330 65 311 0.0 0.0 0.00 0.00 0.00 81
20260905044814 65 311 0.0 0.0 0.00 0.00 0.00 80
20260905043017 66 311 0.0 0.0 0.00 0.00 0.00 79
20260905042517 66 311 0.0 0.0 0.00 0.00 0.00 79
20260905042019 66 311 0.0 0.0 0.00 0.00 0.00 79
20260905040856 67 311 0.0 0.0 0.00 0.00 0.00 78
20260905040336 67 311 0.0 0.0 0.00 0.00 0.00 77
20260905035831 67 311 0.0 0.0 0.00 0.00 0.00 77
20260905035326 68 311 0.0 0.0 0.00 0.00 0.00 77
20260905034813 68 311 0.0 0.0 0.00 0.00 0.00 76
20260905034314 68 311 0.0 0.0 0.00 0.00 0.00 76
20260905033813 69 311 0.0 0.0 0.00 0.00 0.00 76
20260905033253 69 311 0.0 0.0 0.00 0.00 0.00 76
20260905032757 69 311 0.0 0.0 0.00 0.00 0.00 76
20260905032242 69 311 0.0 0.0 0.00 0.00 0.00 75
20260905031724 70 311 0.0 0.0 0.00 0.00 0.00 75
20260905030619 70 311 0.0 0.0 0.00 0.00 0.00 74
20260905030113 71 311 0.0 0.0 0.00 0.00 0.00 75
20260905025607 71 311 0.0 0.0 0.00 0.00 0.00 74
20260905025116 71 311 0.0 0.0 0.00 0.00 0.00 74
20260905023327 72 311 0.0 2.0 0.00 0.00 0.00 73
20260905022826 72 311 0.0 1.0 0.00 0.00 0.00 73
20260905022332 73 311 0.0 3.0 0.00 0.00 0.00 72
20260905021832 73 311 0.0 3.0 0.00 0.00 0.00 72
20260905021332 74 311 0.0 3.0 0.00 0.00 0.00 71
20260905020819 74 311 0.0 3.0 0.00 0.00 0.00 70
20260905020319 75 311 0.0 0.0 0.00 0.00 0.00 69
20260905015810 75 311 0.0 5.0 0.00 0.00 0.00 68
20260905015313 75 311 0.0 5.0 0.00 0.00 0.00 68
20260905014815 76 311 0.0 5.0 0.00 0.00 0.00 66
20260905014258 76 311 0.0 3.0 0.00 0.00 0.00 66
20260905013742 77 311 0.0 3.0 0.00 0.00 0.00 64
20260905012618 78 311 1.0 3.0 0.00 0.00 0.00 62
20260905011455 79 311 0.0 3.0 0.00 0.00 0.00 58
20260905010954 79 311 0.0 2.0 0.00 0.00 0.00 57
20260905010452 80 311 0.0 0.0 0.00 0.00 0.00 57
20260905005949 80 311 0.0 4.0 0.00 0.00 0.00 56
20260905005458 80 311 0.0 4.0 0.00 0.00 0.00 56
20260905005006 81 311 1.0 4.0 0.00 0.00 0.00 56
20260905004514 81 312 1.0 4.0 0.00 0.00 0.00 56
20260905004015 81 312 0.0 4.0 0.00 0.00 0.00 55
20260905003512 82 311 0.0 5.0 0.00 0.00 0.00 54
20260905003006 82 264 1.0 5.0 0.00 0.00 0.00 54
20260905002505 82 281 1.0 5.0 0.00 0.00 0.00 54
20260905002012 83 293 1.0 5.0 0.00 0.00 0.00 52
20260905001453 83 286 1.0 4.0 0.00 0.00 0.00 51
20260905000318 84 329 1.0 5.0 0.00 0.00 0.00 50
20260904235825 84 293 1.0 5.0 0.00 0.00 0.00 49
20260904234010 85 237 0.0 3.0 0.00 0.00 0.00 46
20260904233504 85 105 0.0 2.0 0.00 0.00 0.00 46
20260904233007 86 111 0.0 2.0 0.00 0.00 0.00 45
20260904232501 86 136 0.0 2.0 0.00 0.00 0.00 45
20260904231946 86 336 0.0 2.0 0.00 0.00 0.00 45
20260904231446 86 108 0.0 2.0 0.00 0.00 0.00 45
20260904230946 86 65 0.0 2.0 0.00 0.00 0.00 45
20260904230437 86 49 0.0 2.0 0.00 0.00 0.00 45
20260904225940 86 117 0.0 3.0 0.00 0.00 0.00 45
20260904225426 86 121 0.0 3.0 0.00 0.00 0.00 44
20260904224925 86 229 0.0 4.0 0.00 0.00 0.00 44
20260904224425 86 117 0.0 4.0 0.00 0.00 0.00 44
20260904223922 86 113 0.0 5.0 0.00 0.00 0.00 45
20260904223422 86 55 0.0 5.0 0.00 0.00 0.00 44
20260904222307 87 130 0.0 5.0 0.00 0.00 0.00 43
20260904221759 87 71 0.0 3.0 0.00 0.00 0.00 43
20260904221303 87 81 0.0 3.0 0.00 0.00 0.00 43
20260904220743 87 64 0.0 3.0 0.00 0.00 0.00 42
20260904220225 87 163 0.0 2.0 0.00 0.00 0.00 42
20260904215721 87 147 0.0 2.0 0.00 0.00 0.00 42
20260904215214 87 71 0.0 3.0 0.00 0.00 0.00 44
20260904214654 87 110 0.0 3.0 0.00 0.00 0.00 45
20260904214149 87 81 0.0 4.0 0.00 0.00 0.00 45
20260904213651 87 65 0.0 4.0 0.00 0.00 0.00 47
20260904212533 87 104 0.0 6.0 0.00 0.00 0.00 45
20260904212041 87 22 1.0 6.0 0.00 0.00 0.00 46
20260904211540 88 65 0.0 6.0 0.00 0.00 0.00 45
20260904210412 88 117 0.0 3.0 0.00 0.00 0.00 45
20260904205909 88 128 0.0 3.0 0.00 0.00 0.00 45
20260904205414 88 108 0.0 3.0 0.00 0.00 0.00 46
20260904204858 88 81 0.0 3.0 0.00 0.00 0.00 47
20260904203755 87 58 0.0 3.0 0.00 0.00 0.00 48
20260904203241 86 170 0.0 3.0 0.00 0.00 0.00 48
20260904202749 86 170 0.0 4.0 0.00 0.00 0.00 48
20260904202230 85 303 0.0 8.0 0.00 0.00 0.00 49
20260904201732 85 95 1.0 8.0 0.00 0.00 0.00 49
20260904201241 85 312 1.0 8.0 0.00 0.00 0.00 50
20260904200727 85 318 1.0 8.0 0.00 0.00 0.00 51
20260904200223 85 254 1.0 6.0 0.00 0.00 0.00 51
20260904195714 84 277 2.0 7.0 0.00 0.00 0.00 52
20260904195212 84 119 2.0 7.0 0.00 0.00 0.00 52
20260904194712 84 312 1.0 9.0 0.00 0.00 0.00 51
20260904194213 84 329 1.0 9.0 0.00 0.00 0.00 51
20260904193702 85 311 4.0 9.0 0.00 0.00 0.00 50
20260904191855 85 298 2.0 6.0 0.00 0.00 0.00 50
20260904191346 85 299 2.0 5.0 0.00 0.00 0.00 50
20260904190853 86 302 1.0 5.0 0.00 0.00 0.00 48
20260904190355 87 311 0.0 4.0 0.00 0.00 0.00 49
20260904185902 86 311 1.0 4.0 0.00 0.00 0.00 48
20260904185351 87 348 0.0 2.0 0.00 0.00 0.00 47
20260904184239 86 120 0.0 5.0 0.00 0.00 0.00 48
20260904183732 86 143 0.0 5.0 0.00 0.00 0.00 47